Location: Deuil
(48.9767°N, 2.3272°E)
Time: 02:16:14
(UTC+00:00)

Cosmos 2360 Rocket - Pass Details

Date: 31 May 2022
Orbit: 832 x 846 km, 71.0° (Epoch: 03 July)

Event Time Altitude Azimuth Distance (km) Brightness Sun altitude
Exits shadow 20:18:33 - 154° (SSE) 3,012 4.5 -5.0°
Reaches altitude 10° 20:20:32 10° 142° (SE) 2,446 4.0 -5.3°
Maximum altitude 20:24:18 19° 99° (E) 1,911 3.6 -5.7°
Drops below altitude 10° 20:28:06 10° 57° (ENE) 2,464 4.5 -6.2°
Sets 20:31:14 0° 40° (NE) 3,407 5.4 -6.6°
